sat.trackr.live / text

‹ back to catalog

STARLINK-32045

NORAD 60106 · 2024-117R

PAYLOAD ACTIVE UNKNOWN

§ Identity

Operator
Country
US
Launch date
2024-06-23
Launch site
AFETR
Launch vehicle
Mass (kg)
RCS (m²)

Purposes: comms

External: N2YO · Heavens-Above · Gunter

§ Orbital elements

Epoch: 2026-09-21T13:10:12.470880Z

Period
93.85 min
Inclination
53.1548°
Eccentricity
0.0002040
Mean motion
15.34401466 rev/d
Perigee alt
461.3 km
Apogee alt
464.1 km
Semi-major
6,840.8 km
B*
8.6710e-5
RAAN
204.5219°
Arg perigee
87.1955°
Mean anomaly
272.9281°
Rev number
12,691

§ Raw data

STARLINK-320451 60106U 24117R   26264.54875545  .00002554  00000+0  86710-4 0  99922 60106  53.1548 204.5219 0002040  87.1955 272.9281 15.34401466126919

JSON: /api/v1/satellites/60106 · /tle

For live sub-satellite position, see the globe view (requires WebGL).

§ Visibility from observer

Set your observer location to see the next 7 days of passes ≥ 10°. The values pass through the URL so the page stays shareable.

No JS? Fill the form by hand. The geolocation button needs JavaScript.